Year,Month,Day,Hour,Minute,Value (Times are PST for temperature in C)
2006,05,16,00,00,15.00
2006,05,16,00,01,15.10
2006,05,16,00,02,15.10
2006,05,16,00,03,15.10
2006,05,16,00,04,15.20
2006,05,16,00,05,15.20
2006,05,16,00,06,15.20
2006,05,16,00,07,15.20
2006,05,16,00,08,15.20
2006,05,16,00,09,15.20
2006,05,16,00,10,15.20
2006,05,16,00,11,15.20
2006,05,16,00,12,15.30
2006,05,16,00,13,15.30
2006,05,16,00,14,15.30
2006,05,16,00,15,15.30
2006,05,16,00,16,15.30
2006,05,16,00,17,15.30
2006,05,16,00,18,15.20
2006,05,16,00,19,15.20
2006,05,16,00,20,15.10
2006,05,16,00,21,15.10
2006,05,16,00,22,15.10
2006,05,16,00,23,15.00
2006,05,16,00,24,15.00
2006,05,16,00,25,15.00
2006,05,16,00,26,14.90
2006,05,16,00,27,14.90
2006,05,16,00,28,14.90
2006,05,16,00,29,14.90
2006,05,16,00,30,14.80
2006,05,16,00,31,14.80
2006,05,16,00,32,14.80
2006,05,16,00,33,14.80
2006,05,16,00,34,14.80
2006,05,16,00,35,14.80
2006,05,16,00,36,14.80
2006,05,16,00,37,14.80
2006,05,16,00,38,14.80
2006,05,16,00,39,14.80
2006,05,16,00,40,14.80
2006,05,16,00,41,14.80
2006,05,16,00,42,14.80
2006,05,16,00,43,14.80
2006,05,16,00,44,14.80
2006,05,16,00,45,14.80
2006,05,16,00,46,14.70
2006,05,16,00,47,14.70
2006,05,16,00,48,14.60
2006,05,16,00,49,14.60
2006,05,16,00,50,14.60
2006,05,16,00,51,14.50
2006,05,16,00,52,14.50
2006,05,16,00,53,14.50
2006,05,16,00,54,14.40
2006,05,16,00,55,14.40
2006,05,16,00,56,14.40
2006,05,16,00,57,14.40
2006,05,16,00,58,14.30
2006,05,16,00,59,14.30
2006,05,16,01,00,14.30
2006,05,16,01,01,14.30
2006,05,16,01,02,14.20
2006,05,16,01,03,14.20
2006,05,16,01,04,14.20
2006,05,16,01,05,14.20
2006,05,16,01,06,14.20
2006,05,16,01,07,14.20
2006,05,16,01,08,14.20
2006,05,16,01,09,14.20
2006,05,16,01,10,14.20
2006,05,16,01,11,14.20
2006,05,16,01,12,14.20
2006,05,16,01,13,14.20
2006,05,16,01,14,14.20
2006,05,16,01,15,14.20
2006,05,16,01,16,14.30
2006,05,16,01,17,14.30
2006,05,16,01,18,14.30
2006,05,16,01,19,14.40
2006,05,16,01,20,14.40
2006,05,16,01,21,14.40
2006,05,16,01,22,14.50
2006,05,16,01,23,14.50
2006,05,16,01,24,14.50
2006,05,16,01,25,14.50
2006,05,16,01,26,14.50
2006,05,16,01,27,14.50
2006,05,16,01,28,14.50
2006,05,16,01,29,14.60
2006,05,16,01,30,14.60
2006,05,16,01,31,14.60
2006,05,16,01,32,14.60
2006,05,16,01,33,14.60
2006,05,16,01,34,14.60
2006,05,16,01,35,14.50
2006,05,16,01,36,14.50
2006,05,16,01,37,14.40
2006,05,16,01,38,14.40
2006,05,16,01,39,14.40
2006,05,16,01,40,14.30
2006,05,16,01,41,14.30
2006,05,16,01,42,14.30
2006,05,16,01,43,14.20
2006,05,16,01,44,14.20
2006,05,16,01,45,14.20
2006,05,16,01,46,14.20
2006,05,16,01,47,14.20
2006,05,16,01,48,14.20
2006,05,16,01,49,14.20
2006,05,16,01,50,14.20
2006,05,16,01,51,14.10
2006,05,16,01,52,14.10
2006,05,16,01,53,14.20
2006,05,16,01,54,14.20
2006,05,16,01,55,14.20
2006,05,16,01,56,14.20
2006,05,16,01,57,14.20
2006,05,16,01,58,14.20
2006,05,16,01,59,14.20
2006,05,16,02,00,14.10
2006,05,16,02,01,14.10
2006,05,16,02,02,14.10
2006,05,16,02,03,14.10
2006,05,16,02,04,14.10
2006,05,16,02,05,14.10
2006,05,16,02,06,14.00
2006,05,16,02,07,14.10
2006,05,16,02,08,14.10
2006,05,16,02,09,14.10
2006,05,16,02,10,14.10
2006,05,16,02,11,14.10
2006,05,16,02,12,14.10
2006,05,16,02,13,14.00
2006,05,16,02,14,14.00
2006,05,16,02,15,14.00
2006,05,16,02,16,13.90
2006,05,16,02,17,13.90
2006,05,16,02,18,13.90
2006,05,16,02,19,13.80
2006,05,16,02,20,13.80
2006,05,16,02,21,13.80
2006,05,16,02,22,13.70
2006,05,16,02,23,13.70
2006,05,16,02,24,13.70
2006,05,16,02,25,13.60
2006,05,16,02,26,13.60
2006,05,16,02,27,13.60
2006,05,16,02,28,13.50
2006,05,16,02,29,13.50
2006,05,16,02,30,13.50
2006,05,16,02,31,13.50
2006,05,16,02,32,13.50
2006,05,16,02,33,13.40
2006,05,16,02,34,13.40
2006,05,16,02,35,13.40
2006,05,16,02,36,13.40
2006,05,16,02,37,13.40
2006,05,16,02,38,13.30
2006,05,16,02,39,13.30
2006,05,16,02,40,13.30
2006,05,16,02,41,13.30
2006,05,16,02,42,13.30
2006,05,16,02,43,13.30
2006,05,16,02,44,13.20
2006,05,16,02,45,13.20
2006,05,16,02,46,13.20
2006,05,16,02,47,13.20
2006,05,16,02,48,13.20
2006,05,16,02,49,13.20
2006,05,16,02,50,13.20
2006,05,16,02,51,13.20
2006,05,16,02,52,13.20
2006,05,16,02,53,13.10
2006,05,16,02,54,13.20
2006,05,16,02,55,13.20
2006,05,16,02,56,13.20
2006,05,16,02,57,13.20
2006,05,16,02,58,13.20
2006,05,16,02,59,13.20
2006,05,16,03,00,13.10
2006,05,16,03,01,13.10
2006,05,16,03,02,13.10
2006,05,16,03,03,13.00
2006,05,16,03,04,13.00
2006,05,16,03,05,13.00
2006,05,16,03,06,13.00
2006,05,16,03,07,13.00
2006,05,16,03,08,13.00
2006,05,16,03,09,13.00
2006,05,16,03,10,13.00
2006,05,16,03,11,13.00
2006,05,16,03,12,13.00
2006,05,16,03,13,13.00
2006,05,16,03,14,13.00
2006,05,16,03,15,13.00
2006,05,16,03,16,13.00
2006,05,16,03,17,13.00
2006,05,16,03,18,13.00
2006,05,16,03,19,13.00
2006,05,16,03,20,13.00
2006,05,16,03,21,13.00
2006,05,16,03,22,13.00
2006,05,16,03,23,13.00
2006,05,16,03,24,13.00
2006,05,16,03,25,13.00
2006,05,16,03,26,13.00
2006,05,16,03,27,13.00
2006,05,16,03,28,13.00
2006,05,16,03,29,13.00
2006,05,16,03,30,13.00
2006,05,16,03,31,13.00
2006,05,16,03,32,12.90
2006,05,16,03,33,13.00
2006,05,16,03,34,13.00
2006,05,16,03,35,13.00
2006,05,16,03,36,13.00
2006,05,16,03,37,13.00
2006,05,16,03,38,13.00
2006,05,16,03,39,13.00
2006,05,16,03,40,13.00
2006,05,16,03,41,13.00
2006,05,16,03,42,13.00
2006,05,16,03,43,13.00
2006,05,16,03,44,13.00
2006,05,16,03,45,13.00
2006,05,16,03,46,13.00
2006,05,16,03,47,13.00
2006,05,16,03,48,13.00
2006,05,16,03,49,12.90
2006,05,16,03,50,12.90
2006,05,16,03,51,12.90
2006,05,16,03,52,12.90
2006,05,16,03,53,12.90
2006,05,16,03,54,12.80
2006,05,16,03,55,12.80
2006,05,16,03,56,12.80
2006,05,16,03,57,12.80
2006,05,16,03,58,12.80
2006,05,16,03,59,12.80
2006,05,16,04,00,12.80
2006,05,16,04,01,12.80
2006,05,16,04,02,12.80
2006,05,16,04,03,12.80
2006,05,16,04,04,12.80
2006,05,16,04,05,12.80
2006,05,16,04,06,12.80
2006,05,16,04,07,12.80
2006,05,16,04,08,12.80
2006,05,16,04,09,12.80
2006,05,16,04,10,12.80
2006,05,16,04,11,12.80
2006,05,16,04,12,12.80
2006,05,16,04,13,12.80
2006,05,16,04,14,12.80
2006,05,16,04,15,12.80
2006,05,16,04,16,12.80
2006,05,16,04,17,12.80
2006,05,16,04,18,12.80
2006,05,16,04,19,12.80
2006,05,16,04,20,12.80
2006,05,16,04,21,12.80
2006,05,16,04,22,12.80
2006,05,16,04,23,12.80
2006,05,16,04,24,12.80
2006,05,16,04,25,12.70
2006,05,16,04,26,12.70
2006,05,16,04,27,12.70
2006,05,16,04,28,12.70
2006,05,16,04,29,12.70
2006,05,16,04,30,12.70
2006,05,16,04,31,12.70
2006,05,16,04,32,12.60
2006,05,16,04,33,12.60
2006,05,16,04,34,12.60
2006,05,16,04,35,12.60
2006,05,16,04,36,12.60
2006,05,16,04,37,12.60
2006,05,16,04,38,12.60
2006,05,16,04,39,12.50
2006,05,16,04,40,12.50
2006,05,16,04,41,12.50
2006,05,16,04,42,12.50
2006,05,16,04,43,12.50
2006,05,16,04,44,12.50
2006,05,16,04,45,12.50
2006,05,16,04,46,12.50
2006,05,16,04,47,12.50
2006,05,16,04,48,12.50
2006,05,16,04,49,12.50
2006,05,16,04,50,12.50
2006,05,16,04,51,12.50
2006,05,16,04,52,12.40
2006,05,16,04,53,12.40
2006,05,16,04,54,12.40
2006,05,16,04,55,12.40
2006,05,16,04,56,12.40
2006,05,16,04,57,12.30
2006,05,16,04,58,12.30
2006,05,16,04,59,12.30
2006,05,16,05,00,12.30
2006,05,16,05,01,12.30
2006,05,16,05,02,12.30
2006,05,16,05,03,12.20
2006,05,16,05,04,12.20
2006,05,16,05,05,12.20
2006,05,16,05,06,12.20
2006,05,16,05,07,12.20
2006,05,16,05,08,12.20
2006,05,16,05,09,12.20
2006,05,16,05,10,12.10
2006,05,16,05,11,12.10
2006,05,16,05,12,12.10
2006,05,16,05,13,12.00
2006,05,16,05,14,12.00
2006,05,16,05,15,12.00
2006,05,16,05,16,12.00
2006,05,16,05,17,11.90
2006,05,16,05,18,11.90
2006,05,16,05,19,11.90
2006,05,16,05,20,11.90
2006,05,16,05,21,11.80
2006,05,16,05,22,11.80
2006,05,16,05,23,11.80
2006,05,16,05,24,11.80
2006,05,16,05,25,11.80
2006,05,16,05,26,11.80
2006,05,16,05,27,11.80
2006,05,16,05,28,11.80
2006,05,16,05,29,11.80
2006,05,16,05,30,11.80
2006,05,16,05,31,11.80
2006,05,16,05,32,11.70
2006,05,16,05,33,11.70
2006,05,16,05,34,11.70
2006,05,16,05,35,11.70
2006,05,16,05,36,11.70
2006,05,16,05,37,11.70
2006,05,16,05,38,11.70
2006,05,16,05,39,11.70
2006,05,16,05,40,11.70
2006,05,16,05,41,11.70
2006,05,16,05,42,11.70
2006,05,16,05,43,11.70
2006,05,16,05,44,11.70
2006,05,16,05,45,11.70
2006,05,16,05,46,11.70
2006,05,16,05,47,11.70
2006,05,16,05,48,11.60
2006,05,16,05,49,11.60
2006,05,16,05,50,11.60
2006,05,16,05,51,11.60
2006,05,16,05,52,11.60
2006,05,16,05,53,11.60
2006,05,16,05,54,11.60
2006,05,16,05,55,11.60
2006,05,16,05,56,11.60
2006,05,16,05,57,11.60
2006,05,16,05,58,11.60
2006,05,16,05,59,11.60
2006,05,16,06,00,11.60
2006,05,16,06,01,11.60
2006,05,16,06,02,11.60
2006,05,16,06,03,11.60
2006,05,16,06,04,11.60
2006,05,16,06,05,11.60
2006,05,16,06,06,11.60
2006,05,16,06,07,11.60
2006,05,16,06,08,11.70
2006,05,16,06,09,11.70
2006,05,16,06,10,11.80
2006,05,16,06,11,11.80
2006,05,16,06,12,11.90
2006,05,16,06,13,11.90
2006,05,16,06,14,12.00
2006,05,16,06,15,12.00
2006,05,16,06,16,12.10
2006,05,16,06,17,12.10
2006,05,16,06,18,12.20
2006,05,16,06,19,12.20
2006,05,16,06,20,12.20
2006,05,16,06,21,12.30
2006,05,16,06,22,12.30
2006,05,16,06,23,12.30
2006,05,16,06,24,12.30
2006,05,16,06,25,12.30
2006,05,16,06,26,12.30
2006,05,16,06,27,12.30
2006,05,16,06,28,12.40
2006,05,16,06,29,12.40
2006,05,16,06,30,12.40
2006,05,16,06,31,12.40
2006,05,16,06,32,12.40
2006,05,16,06,33,12.50
2006,05,16,06,34,12.50
2006,05,16,06,35,12.60
2006,05,16,06,36,12.60
2006,05,16,06,37,12.70
2006,05,16,06,38,12.70
2006,05,16,06,39,12.80
2006,05,16,06,40,12.80
2006,05,16,06,41,12.80
2006,05,16,06,42,12.80
2006,05,16,06,43,12.80
2006,05,16,06,44,12.90
2006,05,16,06,45,12.90
2006,05,16,06,46,13.00
2006,05,16,06,47,13.00
2006,05,16,06,48,13.10
2006,05,16,06,49,13.10
2006,05,16,06,50,13.20
2006,05,16,06,51,13.20
2006,05,16,06,52,13.30
2006,05,16,06,53,13.30
2006,05,16,06,54,13.40
2006,05,16,06,55,13.50
2006,05,16,06,56,13.60
2006,05,16,06,57,13.70
2006,05,16,06,58,13.70
2006,05,16,06,59,13.80
2006,05,16,07,00,13.80
2006,05,16,07,01,13.90
2006,05,16,07,02,14.00
2006,05,16,07,03,14.10
2006,05,16,07,04,14.20
2006,05,16,07,05,14.20
2006,05,16,07,06,14.20
2006,05,16,07,07,14.20
2006,05,16,07,08,14.20
2006,05,16,07,09,14.20
2006,05,16,07,10,14.20
2006,05,16,07,11,14.20
2006,05,16,07,12,14.20
2006,05,16,07,13,14.30
2006,05,16,07,14,14.30
2006,05,16,07,15,14.40
2006,05,16,07,16,14.40
2006,05,16,07,17,14.50
2006,05,16,07,18,14.60
2006,05,16,07,19,14.80
2006,05,16,07,20,15.00
2006,05,16,07,21,15.20
2006,05,16,07,22,15.40
2006,05,16,07,23,15.50
2006,05,16,07,24,15.70
2006,05,16,07,25,15.80
2006,05,16,07,26,15.80
2006,05,16,07,27,15.70
2006,05,16,07,28,15.70
2006,05,16,07,29,15.80
2006,05,16,07,30,15.80
2006,05,16,07,31,15.80
2006,05,16,07,32,15.70
2006,05,16,07,33,15.60
2006,05,16,07,34,15.60
2006,05,16,07,35,15.60
2006,05,16,07,36,15.50
2006,05,16,07,37,15.50
2006,05,16,07,38,15.40
2006,05,16,07,39,15.40
2006,05,16,07,40,15.40
2006,05,16,07,41,15.40
2006,05,16,07,42,15.40
2006,05,16,07,43,15.30
2006,05,16,07,44,15.30
2006,05,16,07,45,15.30
2006,05,16,07,46,15.40
2006,05,16,07,47,15.40
2006,05,16,07,48,15.50
2006,05,16,07,49,15.70
2006,05,16,07,50,15.90
2006,05,16,07,51,16.00
2006,05,16,07,52,16.10
2006,05,16,07,53,16.10
2006,05,16,07,54,16.20
2006,05,16,07,55,16.20
2006,05,16,07,56,16.20
2006,05,16,07,57,16.20
2006,05,16,07,58,16.30
2006,05,16,07,59,16.40
2006,05,16,08,00,16.40
2006,05,16,08,01,16.40
2006,05,16,08,02,16.40
2006,05,16,08,03,16.40
2006,05,16,08,04,16.40
2006,05,16,08,05,16.40
2006,05,16,08,06,16.40
2006,05,16,08,07,16.40
2006,05,16,08,08,16.40
2006,05,16,08,09,16.40
2006,05,16,08,10,16.40
2006,05,16,08,11,16.40
2006,05,16,08,12,16.40
2006,05,16,08,13,16.40
2006,05,16,08,14,16.50
2006,05,16,08,15,16.60
2006,05,16,08,16,16.60
2006,05,16,08,17,16.70
2006,05,16,08,18,16.80
2006,05,16,08,19,16.90
2006,05,16,08,20,17.00
2006,05,16,08,21,17.20
2006,05,16,08,22,17.30
2006,05,16,08,23,17.40
2006,05,16,08,24,17.50
2006,05,16,08,25,17.50
2006,05,16,08,26,17.60
2006,05,16,08,27,17.60
2006,05,16,08,28,17.70
2006,05,16,08,29,17.80
2006,05,16,08,30,17.80
2006,05,16,08,31,17.90
2006,05,16,08,32,17.90
2006,05,16,08,33,18.00
2006,05,16,08,34,18.10
2006,05,16,08,35,18.10
2006,05,16,08,36,18.10
2006,05,16,08,37,17.90
2006,05,16,08,38,17.70
2006,05,16,08,39,17.50
2006,05,16,08,40,17.40
2006,05,16,08,41,17.20
2006,05,16,08,42,17.10
2006,05,16,08,43,16.90
2006,05,16,08,44,16.80
2006,05,16,08,45,16.70
2006,05,16,08,46,16.60
2006,05,16,08,47,16.50
2006,05,16,08,48,16.40
2006,05,16,08,49,16.30
2006,05,16,08,50,16.30
2006,05,16,08,51,16.30
2006,05,16,08,52,16.30
2006,05,16,08,53,16.20
2006,05,16,08,54,16.20
2006,05,16,08,55,16.20
2006,05,16,08,56,16.30
2006,05,16,08,57,16.30
2006,05,16,08,58,16.30
2006,05,16,08,59,16.30
2006,05,16,09,00,16.30
2006,05,16,09,01,16.30
2006,05,16,09,02,16.40
2006,05,16,09,03,16.40
2006,05,16,09,04,16.40
2006,05,16,09,05,16.40
2006,05,16,09,06,16.60
2006,05,16,09,07,16.70
2006,05,16,09,08,16.70
2006,05,16,09,09,16.80
2006,05,16,09,10,17.00
2006,05,16,09,11,17.10
2006,05,16,09,12,17.20
2006,05,16,09,13,17.30
2006,05,16,09,14,17.30
2006,05,16,09,15,17.30
2006,05,16,09,16,17.30
2006,05,16,09,17,17.40
2006,05,16,09,18,17.50
2006,05,16,09,19,17.60
2006,05,16,09,20,17.70
2006,05,16,09,21,17.70
2006,05,16,09,22,17.80
2006,05,16,09,23,17.90
2006,05,16,09,24,18.00
2006,05,16,09,25,18.10
2006,05,16,09,26,18.20
2006,05,16,09,27,18.30
2006,05,16,09,28,18.40
2006,05,16,09,29,18.50
2006,05,16,09,30,18.60
2006,05,16,09,31,18.60
2006,05,16,09,32,18.80
2006,05,16,09,33,18.80
2006,05,16,09,34,18.90
2006,05,16,09,35,19.00
2006,05,16,09,36,19.10
2006,05,16,09,37,19.10
2006,05,16,09,38,19.10
2006,05,16,09,39,19.20
2006,05,16,09,40,19.20
2006,05,16,09,41,19.30
2006,05,16,09,42,19.40
2006,05,16,09,43,19.20
2006,05,16,09,44,19.10
2006,05,16,09,45,18.90
2006,05,16,09,46,18.80
2006,05,16,09,47,18.80
2006,05,16,09,48,18.70
2006,05,16,09,49,18.60
2006,05,16,09,50,18.60
2006,05,16,09,51,18.60
2006,05,16,09,52,18.60
2006,05,16,09,53,18.60
2006,05,16,09,54,18.50
2006,05,16,09,55,18.30
2006,05,16,09,56,18.20
2006,05,16,09,57,18.20
2006,05,16,09,58,18.20
2006,05,16,09,59,18.20
2006,05,16,10,00,18.20
2006,05,16,10,01,18.20
2006,05,16,10,02,18.10
2006,05,16,10,03,18.10
2006,05,16,10,04,18.20
2006,05,16,10,05,18.20
2006,05,16,10,06,18.30
2006,05,16,10,07,18.50
2006,05,16,10,08,18.60
2006,05,16,10,09,18.70
2006,05,16,10,10,18.70
2006,05,16,10,11,18.90
2006,05,16,10,12,18.90
2006,05,16,10,13,18.90
2006,05,16,10,14,18.90
2006,05,16,10,15,18.90
2006,05,16,10,16,18.90
2006,05,16,10,17,18.90
2006,05,16,10,18,18.90
2006,05,16,10,19,19.00
2006,05,16,10,20,19.10
2006,05,16,10,21,19.10
2006,05,16,10,22,19.10
2006,05,16,10,23,19.10
2006,05,16,10,24,19.10
2006,05,16,10,25,19.10
2006,05,16,10,26,19.20
2006,05,16,10,27,19.30
2006,05,16,10,28,19.40
2006,05,16,10,29,19.50
2006,05,16,10,30,19.60
2006,05,16,10,31,19.60
2006,05,16,10,32,19.70
2006,05,16,10,33,19.90
2006,05,16,10,34,20.00
2006,05,16,10,35,20.30
2006,05,16,10,36,20.50
2006,05,16,10,37,20.70
2006,05,16,10,38,20.80
2006,05,16,10,39,21.00
2006,05,16,10,40,21.10
2006,05,16,10,41,21.20
2006,05,16,10,42,21.30
2006,05,16,10,43,21.50
2006,05,16,10,44,21.70
2006,05,16,10,45,21.90
2006,05,16,10,46,22.00
2006,05,16,10,47,22.00
2006,05,16,10,48,22.20
2006,05,16,10,49,22.30
2006,05,16,10,50,22.40
2006,05,16,10,51,22.50
2006,05,16,10,52,22.70
2006,05,16,10,53,22.80
2006,05,16,10,54,22.80
2006,05,16,10,55,22.90
2006,05,16,10,56,23.00
2006,05,16,10,57,23.00
2006,05,16,10,58,23.00
2006,05,16,10,59,23.10
2006,05,16,11,00,23.20
2006,05,16,11,01,23.30
2006,05,16,11,02,23.30
2006,05,16,11,03,23.30
2006,05,16,11,04,23.30
2006,05,16,11,05,23.30
2006,05,16,11,06,23.30
2006,05,16,11,07,23.20
2006,05,16,11,08,23.20
2006,05,16,11,09,23.20
2006,05,16,11,10,23.10
2006,05,16,11,11,23.20
2006,05,16,11,12,23.30
2006,05,16,11,13,23.30
2006,05,16,11,14,23.40
2006,05,16,11,15,23.50
2006,05,16,11,16,23.60
2006,05,16,11,17,23.60
2006,05,16,11,18,23.60
2006,05,16,11,19,23.60
2006,05,16,11,20,23.60
2006,05,16,11,21,23.60
2006,05,16,11,22,23.60
2006,05,16,11,23,23.60
2006,05,16,11,24,23.50
2006,05,16,11,25,23.30
2006,05,16,11,26,23.30
2006,05,16,11,27,23.30
2006,05,16,11,28,23.30
2006,05,16,11,29,23.30
2006,05,16,11,30,23.40
2006,05,16,11,31,23.60
2006,05,16,11,32,23.70
2006,05,16,11,33,23.70
2006,05,16,11,34,23.70
2006,05,16,11,35,23.70
2006,05,16,11,36,23.70
2006,05,16,11,37,23.70
2006,05,16,11,38,23.70
2006,05,16,11,39,23.80
2006,05,16,11,40,24.00
2006,05,16,11,41,24.10
2006,05,16,11,42,24.20
2006,05,16,11,43,24.40
2006,05,16,11,44,24.50
2006,05,16,11,45,24.60
2006,05,16,11,46,24.70
2006,05,16,11,47,24.80
2006,05,16,11,48,24.90
2006,05,16,11,49,25.00
2006,05,16,11,50,25.10
2006,05,16,11,51,25.20
2006,05,16,11,52,25.20
2006,05,16,11,53,25.20
2006,05,16,11,54,25.20
2006,05,16,11,55,25.10
2006,05,16,11,56,25.10
2006,05,16,11,57,25.10
2006,05,16,11,58,25.00
2006,05,16,11,59,25.10
2006,05,16,12,00,25.10
2006,05,16,12,01,25.20
2006,05,16,12,02,25.20
2006,05,16,12,03,25.30
2006,05,16,12,04,25.30
2006,05,16,12,05,25.40
2006,05,16,12,06,25.50
2006,05,16,12,07,25.60
2006,05,16,12,08,25.60
2006,05,16,12,09,25.70
2006,05,16,12,10,25.80
2006,05,16,12,11,25.90
2006,05,16,12,12,26.00
2006,05,16,12,13,26.00
2006,05,16,12,14,26.10
2006,05,16,12,15,26.10
2006,05,16,12,16,26.00
2006,05,16,12,17,26.10
2006,05,16,12,18,26.10
2006,05,16,12,19,26.10
2006,05,16,12,20,26.00
2006,05,16,12,21,25.90
2006,05,16,12,22,25.90
2006,05,16,12,23,25.80
2006,05,16,12,24,25.90
2006,05,16,12,25,25.90
2006,05,16,12,26,25.90
2006,05,16,12,27,25.80
2006,05,16,12,28,25.80
2006,05,16,12,29,25.80
2006,05,16,12,30,25.90
2006,05,16,12,31,26.00
2006,05,16,12,32,25.90
2006,05,16,12,33,25.80
2006,05,16,12,34,25.70
2006,05,16,12,35,25.80
2006,05,16,12,36,25.80
2006,05,16,12,37,25.80
2006,05,16,12,38,25.80
2006,05,16,12,39,25.80
2006,05,16,12,40,25.70
2006,05,16,12,41,25.70
2006,05,16,12,42,25.70
2006,05,16,12,43,25.80
2006,05,16,12,44,25.80
2006,05,16,12,45,25.80
2006,05,16,12,46,25.70
2006,05,16,12,47,25.70
2006,05,16,12,48,25.70
2006,05,16,12,49,25.60
2006,05,16,12,50,25.50
2006,05,16,12,51,25.50
2006,05,16,12,52,25.50
2006,05,16,12,53,25.50
2006,05,16,12,54,25.50
2006,05,16,12,55,25.50
2006,05,16,12,56,25.60
2006,05,16,12,57,25.60
2006,05,16,12,58,25.70
2006,05,16,12,59,25.70
2006,05,16,13,00,25.70
2006,05,16,13,01,25.80
2006,05,16,13,02,25.80
2006,05,16,13,03,25.90
2006,05,16,13,04,25.90
2006,05,16,13,05,26.00
2006,05,16,13,06,26.10
2006,05,16,13,07,26.10
2006,05,16,13,08,26.20
2006,05,16,13,09,26.30
2006,05,16,13,10,26.30
2006,05,16,13,11,26.30
2006,05,16,13,12,26.30
2006,05,16,13,13,26.30
2006,05,16,13,14,26.40
2006,05,16,13,15,26.30
2006,05,16,13,16,26.20
2006,05,16,13,17,26.30
2006,05,16,13,18,26.50
2006,05,16,13,19,26.60
2006,05,16,13,20,26.60
2006,05,16,13,21,26.60
2006,05,16,13,22,26.60
2006,05,16,13,23,26.60
2006,05,16,13,24,26.60
2006,05,16,13,25,26.60
2006,05,16,13,26,26.60
2006,05,16,13,27,26.60
2006,05,16,13,28,26.60
2006,05,16,13,29,26.60
2006,05,16,13,30,26.60
2006,05,16,13,31,26.60
2006,05,16,13,32,26.70
2006,05,16,13,33,26.80
2006,05,16,13,34,26.80
2006,05,16,13,35,26.90
2006,05,16,13,36,27.00
2006,05,16,13,37,27.00
2006,05,16,13,38,26.90
2006,05,16,13,39,26.80
2006,05,16,13,40,26.70
2006,05,16,13,41,26.70
2006,05,16,13,42,26.80
2006,05,16,13,43,26.90
2006,05,16,13,44,27.00
2006,05,16,13,45,27.10
2006,05,16,13,46,27.00
2006,05,16,13,47,27.00
2006,05,16,13,48,27.10
2006,05,16,13,49,27.20
2006,05,16,13,50,27.30
2006,05,16,13,51,27.10
2006,05,16,13,52,27.10
2006,05,16,13,53,27.10
2006,05,16,13,54,27.10
2006,05,16,13,55,27.10
2006,05,16,13,56,27.10
2006,05,16,13,57,27.10
2006,05,16,13,58,27.10
2006,05,16,13,59,27.20
2006,05,16,14,00,27.20
2006,05,16,14,01,27.20
2006,05,16,14,02,27.30
2006,05,16,14,03,27.30
2006,05,16,14,04,27.30
2006,05,16,14,05,27.30
2006,05,16,14,06,27.30
2006,05,16,14,07,27.30
2006,05,16,14,08,27.20
2006,05,16,14,09,27.30
2006,05,16,14,10,27.30
2006,05,16,14,11,27.20
2006,05,16,14,12,27.20
2006,05,16,14,13,27.20
2006,05,16,14,14,27.40
2006,05,16,14,15,27.50
2006,05,16,14,16,27.60
2006,05,16,14,17,27.60
2006,05,16,14,18,27.60
2006,05,16,14,19,27.50
2006,05,16,14,20,27.50
2006,05,16,14,21,27.50
2006,05,16,14,22,27.50
2006,05,16,14,23,27.40
2006,05,16,14,24,27.40
2006,05,16,14,25,27.40
2006,05,16,14,26,27.50
2006,05,16,14,27,27.60
2006,05,16,14,28,27.60
2006,05,16,14,29,27.60
2006,05,16,14,30,27.60
2006,05,16,14,31,27.70
2006,05,16,14,32,27.70
2006,05,16,14,33,27.80
2006,05,16,14,34,28.10
2006,05,16,14,35,28.00
2006,05,16,14,36,28.00
2006,05,16,14,37,28.00
2006,05,16,14,38,27.90
2006,05,16,14,39,27.80
2006,05,16,14,40,27.70
2006,05,16,14,41,27.70
2006,05,16,14,42,27.60
2006,05,16,14,43,27.50
2006,05,16,14,44,27.40
2006,05,16,14,45,27.40
2006,05,16,14,46,27.40
2006,05,16,14,47,27.40
2006,05,16,14,48,27.30
2006,05,16,14,49,27.40
2006,05,16,14,50,27.30
2006,05,16,14,51,27.30
2006,05,16,14,52,27.30
2006,05,16,14,53,27.30
2006,05,16,14,54,27.30
2006,05,16,14,55,27.40
2006,05,16,14,56,27.40
2006,05,16,14,57,27.40
2006,05,16,14,58,27.50
2006,05,16,14,59,27.60
2006,05,16,15,00,27.60
2006,05,16,15,01,27.70
2006,05,16,15,02,27.70
2006,05,16,15,03,27.80
2006,05,16,15,04,27.80
2006,05,16,15,05,27.80
2006,05,16,15,06,27.80
2006,05,16,15,07,27.90
2006,05,16,15,08,27.80
2006,05,16,15,09,27.60
2006,05,16,15,10,27.50
2006,05,16,15,11,27.40
2006,05,16,15,12,27.40
2006,05,16,15,13,27.40
2006,05,16,15,14,27.50
2006,05,16,15,15,27.60
2006,05,16,15,16,27.60
2006,05,16,15,17,27.70
2006,05,16,15,18,27.70
2006,05,16,15,19,27.70
2006,05,16,15,20,27.80
2006,05,16,15,21,27.80
2006,05,16,15,22,27.80
2006,05,16,15,23,27.70
2006,05,16,15,24,27.50
2006,05,16,15,25,27.30
2006,05,16,15,26,27.20
2006,05,16,15,27,27.10
2006,05,16,15,28,27.10
2006,05,16,15,29,27.20
2006,05,16,15,30,27.10
2006,05,16,15,31,27.00
2006,05,16,15,32,27.10
2006,05,16,15,33,27.00
2006,05,16,15,34,26.90
2006,05,16,15,35,26.90
2006,05,16,15,36,26.90
2006,05,16,15,37,26.80
2006,05,16,15,38,26.60
2006,05,16,15,39,26.60
2006,05,16,15,40,26.60
2006,05,16,15,41,26.60
2006,05,16,15,42,26.60
2006,05,16,15,43,26.60
2006,05,16,15,44,26.60
2006,05,16,15,45,26.60
2006,05,16,15,46,26.60
2006,05,16,15,47,26.60
2006,05,16,15,48,26.70
2006,05,16,15,49,26.70
2006,05,16,15,50,26.80
2006,05,16,15,51,26.70
2006,05,16,15,52,26.70
2006,05,16,15,53,26.70
2006,05,16,15,54,26.60
2006,05,16,15,55,26.50
2006,05,16,15,56,26.40
2006,05,16,15,57,26.30
2006,05,16,15,58,26.40
2006,05,16,15,59,26.50
2006,05,16,16,00,26.60
2006,05,16,16,01,26.60
2006,05,16,16,02,26.60
2006,05,16,16,03,26.50
2006,05,16,16,04,26.40
2006,05,16,16,05,26.40
2006,05,16,16,06,26.40
2006,05,16,16,07,26.40
2006,05,16,16,08,26.40
2006,05,16,16,09,26.40
2006,05,16,16,10,26.50
2006,05,16,16,11,26.60
2006,05,16,16,12,26.50
2006,05,16,16,13,26.40
2006,05,16,16,14,26.30
2006,05,16,16,15,26.20
2006,05,16,16,16,26.20
2006,05,16,16,17,26.20
2006,05,16,16,18,26.10
2006,05,16,16,19,26.10
2006,05,16,16,20,26.10
2006,05,16,16,21,26.20
2006,05,16,16,22,26.10
2006,05,16,16,23,26.20
2006,05,16,16,24,26.20
2006,05,16,16,25,26.20
2006,05,16,16,26,26.20
2006,05,16,16,27,26.20
2006,05,16,16,28,26.30
2006,05,16,16,29,26.20
2006,05,16,16,30,26.10
2006,05,16,16,31,26.00
2006,05,16,16,32,26.00
2006,05,16,16,33,26.00
2006,05,16,16,34,26.00
2006,05,16,16,35,26.00
2006,05,16,16,36,25.90
2006,05,16,16,37,25.90
2006,05,16,16,38,25.90
2006,05,16,16,39,25.90
2006,05,16,16,40,25.90
2006,05,16,16,41,25.80
2006,05,16,16,42,25.80
2006,05,16,16,43,25.80
2006,05,16,16,44,25.70
2006,05,16,16,45,25.60
2006,05,16,16,46,25.60
2006,05,16,16,47,25.50
2006,05,16,16,48,25.40
2006,05,16,16,49,25.30
2006,05,16,16,50,25.40
2006,05,16,16,51,25.40
2006,05,16,16,52,25.30
2006,05,16,16,53,25.30
2006,05,16,16,54,25.30
2006,05,16,16,55,25.30
2006,05,16,16,56,25.30
2006,05,16,16,57,25.20
2006,05,16,16,58,25.30
2006,05,16,16,59,25.20
2006,05,16,17,00,25.20
2006,05,16,17,01,25.20
2006,05,16,17,02,25.10
2006,05,16,17,03,25.10
2006,05,16,17,04,25.10
2006,05,16,17,05,25.10
2006,05,16,17,06,25.10
2006,05,16,17,07,25.10
2006,05,16,17,08,25.00
2006,05,16,17,09,25.00
2006,05,16,17,10,25.00
2006,05,16,17,11,24.90
2006,05,16,17,12,24.80
2006,05,16,17,13,24.60
2006,05,16,17,14,24.50
2006,05,16,17,15,24.50
2006,05,16,17,16,24.50
2006,05,16,17,17,24.50
2006,05,16,17,18,24.60
2006,05,16,17,19,24.60